Location: Skalnate Pleso
(49.1889°N, 20.2450°E)
Time: 07:40:42
(UTC+01:00)

Meteor 2-3 Rocket - Pass Details

Date: 19 November 2019
Orbit: 843 x 884 km, 81.2° (Epoch: 06 December)

Event Time Altitude Azimuth Distance (km) Brightness Sun altitude
Rises 05:46:33 0° 196° (SSW) 3,453 6.9 -11.0°
Reaches altitude 10° 05:48:59 10° 198° (SSW) 2,524 6.2 -10.7°
Maximum altitude 05:54:44 74° 283° (WNW) 920 3.7 -9.8°
Drops below altitude 10° 06:00:34 10° 9° (N) 2,557 6.1 -8.9°
Sets 06:03:02 0° 11° (NNE) 3,501 6.8 -8.5°
